Regional Weather Roundup
Issued by NWS

Home | Current Version | Previous Version | Graphics & Text | Print | Product List | Glossary On
Versions: 1 2 3 4 5 6 7 8 9 10 11 12 13 14 15 16 17 18 19 20 21 22 23 24 25 26 27 28 29 30 31 32 33 34 35 36 37 38 39 40 41 42 43 44 45 46 47 48 49 50
000
ASUS43 KIND 231009
RWRIN

WEATHER ROUNDUP FOR INDIANA
NATIONAL WEATHER SERVICE INDIANAPOLIS IN
600 AM EDT SAT JUL 23 2016

NOTE: "FAIR" INDICATES FEW OR NO CLOUDS BELOW 12,000 FEET WITH NO
SIGNIFICANT WEATHER AND/OR OBSTRUCTIONS TO VISIBILITY.

* - STATION DOES NOT REPORT WEATHER SUCH AS PRECIPITATION OR FOG.

+ - STATION NOT QUALITY CONTROLLED BY THE NATIONAL WEATHER SERVICE.
    USE DATA WITH CAUTION...ESPECIALLY DEWPOINT AND RELATIVE
    HUMIDITY OBSERVATIONS.

INZ001>003-010>013-019-020-231100-
NORTHWEST INDIANA

CITY           SKY/WX    TMP DP  RH WIND       PRES   REMARKS
GARY /AIRPORT/ PTCLDY    79  79 100 CALM      29.98F
KNOX *+        CLEAR     70  68  94 SW3       29.99F
LA PORTE +     CLEAR    N/A N/A N/A CALM      30.00S
MICHIGAN CITY+ CLEAR     72  72 100 CALM      29.99F
MONTICELLO +   CLEAR     70  66  88 CALM      29.99F
RENSSELAER +   CLEAR     70  70 100 SW5       29.99F
VALPARAISO     PTCLDY    75  72  90 SW3       29.99F

$$

LMZ046-743>745-231100-
SOUTHERN LAKE MICHIGAN

STATION/POSITION TIME  TEMP    WIND        PRES    WAVE
                       AIR SEA DIR/SP/G            HT
                 (UTC) (F)     (DEG/KT/KT) (MB)    (FT)
BURNS HARBOR     0900   78     210/  7/  9 1015.9S
MICHIGAN CITY    0900   77     190/  7/  7   N/A
5NW MICH CITY    1000   76 74  220/  4/  6   N/A     1

$$

INZ004-005-014>016-021>024-231100-
NORTH CENTRAL INDIANA

CITY           SKY/WX    TMP DP  RH WIND       PRES   REMARKS
GOSHEN         FOG       69  66  90 CALM      30.00S VSB 1/4
LOGANSPORT +   FOG       68  68 100 CALM      30.01S VSB 1/4
PERU/GRISSOM   CLEAR     70  70 100 S5        30.00R FOG
ROCHESTER +    CLEAR     73  73 100 CALM      30.01S
SOUTH BEND     CLEAR     72  71  97 SW3       30.00S
WARSAW +       CLEAR     72  72 100 CALM      30.01S FOG

$$

INZ006>009-017-018-025>027-231100-
NORTHEAST INDIANA

CITY           SKY/WX    TMP DP  RH WIND       PRES   REMARKS
ANGOLA *+        N/A     66  57  72 CALM      30.01S VSB 1/2
AUBURN +         N/A     70  66  88 CALM      30.02R FOG
FORT WAYNE     CLEAR     69  68  96 S5        30.01S
HUNTINGTON +   CLEAR    N/A N/A N/A CALM      30.01S HAZE

$$

INZ028-029-035-036-043>045-051>053-231100-
WEST CENTRAL INDIANA

CITY           SKY/WX    TMP DP  RH WIND       PRES   REMARKS
CRAWFORDSVL +  FOG       67  67 100 CALM      30.02R VSB 1/2
GREENCASTLE +  FOG       68  68 100 CALM      30.02S VSB 1/2
LAFAYETTE      FOG       71  71 100 CALM      30.00S VSB 1/4
TERRE HAUTE    FOG       70  68  93 CALM      30.00S VSB 1/2

$$

INZ030>032-037>040-046>048-054>057-064-065-231100-
CENTRAL INDIANA

CITY           SKY/WX    TMP DP  RH WIND       PRES   REMARKS
FRANKFORT +    CLOUDY   N/A N/A N/A CALM      30.03S FOG
INDIANAPOLIS   PTCLDY    73  70  90 W5        30.01F
-EAGLE CREEK   CLEAR     74  71  91 CALM      30.01S
KOKOMO *+      CLEAR     70  64  83 S3        30.01S
MARION +       CLEAR     67  67 100 CALM      30.02S
MT COMFORT *+  CLEAR     68  68 100 CALM      30.02S
SHELBYVILLE    CLEAR     71  68  90 CALM      30.01S
ZIONSVILLE +   PTCLDY    68  67  99 CALM      30.03S FOG

$$

INZ033-034-041-042-049-050-058-059-231100-
EAST CENTRAL INDIANA

CITY           SKY/WX    TMP DP  RH WIND       PRES   REMARKS
MUNCIE         MOCLDY    71  69  93 CALM      30.02S

$$

INZ060-061-067>069-081>083-085>088-231100-
SOUTHWEST INDIANA

CITY           SKY/WX    TMP DP  RH WIND       PRES   REMARKS
EVANSVILLE     CLOUDY    73  72  96 CALM      30.00S FOG
HUNTINGBURG *+ PTCLDY    72  68  88 CALM      30.01S
WASHINGTON +   FOG       72  72 100 MISG      30.00S VSB 1/4

$$

INZ062-063-066-070>080-084-089>092-231100-
SOUTH CENTRAL AND SOUTHEAST INDIANA

CITY           SKY/WX    TMP DP  RH WIND       PRES   REMARKS
BLOOMINGTON    FOG       70  68  93 CALM      30.02S VSB 1/2
MADISON *+       N/A     72  70  94 CALM      30.03F VSB 1/4
NORTH VERNON + FOG      N/A N/A N/A CALM      30.02F VSB 3/4
SEYMOUR +      FOG       72  72 100 CALM      30.01S VSB 1/4

$$





USA.gov is the U.S. government's official web portal to all federal, state and local government web resources and services.